Flag for Canada Weather past 2 weeks in Saguenay, Quebec, Canada

Now
60 °F

Cool.


Feels Like: 60 °F
Forecast: 49 / 80 °F
Wind: 3 mph from Southwest

Location: Jonquiere Airport

Current Time: Sep 4, 2015 at 9:18:45 PM

Latest Report: Sep 4, 2015 at 9:00 PM


Visibility: N/A

Pressure: 30.27 "Hg

Humidity: 76%

Dew point: 52 °F

Location of SaguenayLocation

Historic Weather in Saguenay — Graph

°F

Saguenay temperature yesterday

Maximum temperature yesterday: 68 °F (at 1:00 AM)
Minimum temperature yesterday: 53 °F (at 11:00 PM)
Average temperature yesterday: 61 °F

Past Weeks' High & Low Weather Summary

 TemperatureHumidityPressure
High79 °F (Aug 21, 4:00 PM)100% (Aug 26, 3:00 AM)30.29 "Hg (Aug 26, 3:00 AM)
Low44 °F (Sep 4, 5:00 AM)41% (Sep 4, 4:00 PM)29.67 "Hg (Aug 31, 8:00 AM)
Average65 °F79%29.98 "Hg
* Reported Aug 20 8:00 PM — Sep 4 8:00 PM, Saguenay, Weather by CustomWeather, © 2015

Note: Actual official high and low records may vary slightly from our data, if they occured in-between our weather recording intervals... More about our weather records

Advertising

Saguenay weather history for previous 24 hours

 ConditionsComfort  
Time TempWeatherWind HumidityBarometerVisibility
8:00 PM
Fri, Sep 4
62 °FCool.2 mph63%30.27 "HgN/A
7:00 PM67 °FMild.1 mph53%30.27 "HgN/A
6:00 PM71 °FMild.6 mph47%30.27 "HgN/A
5:00 PM72 °FMild.7 mph47%30.26 "HgN/A
4:00 PM73 °FMild.2 mph41%30.24 "HgN/A
3:00 PM71 °FMild.6 mph44%30.25 "HgN/A
2:00 PM71 °FMild.3 mph46%30.27 "HgN/A
11:00 AM62 °FCool.2 mph76%30.28 "HgN/A
10:00 AM56 °FCool.3 mph97%30.29 "HgN/A
9:00 AM52 °FCool.3 mph100%30.28 "HgN/A
8:00 AM49 °FCool.1 mph100%30.28 "HgN/A
7:00 AM48 °FCool.1 mph100%30.27 "HgN/A
6:00 AM45 °FQuite cool.No wind99%30.23 "HgN/A
5:00 AM44 °FQuite cool.2 mph100%30.20 "HgN/A
4:00 AM46 °FCool.3 mph98%30.18 "HgN/A
3:00 AM47 °FCool.5 mph97%30.17 "HgN/A
2:00 AM47 °FCool.5 mph95%30.16 "HgN/A
1:00 AM51 °FCool.2 mph92%30.17 "HgN/A
12:00 AM51 °FCool.1 mph93%30.13 "HgN/A
11:00 PM
Thu, Sep 3
53 °FCool.2 mph86%30.11 "HgN/A
10:00 PM55 °FCool.2 mph82%30.10 "HgN/A
9:00 PM56 °FCool.7 mph81%30.07 "HgN/A
Weather by CustomWeather, © 2015

See weather overviewHow to use our weather pages